STARLINK-3805, 52377

Orbit data source: Space-Track

STARLINK-3805, 52377 is a payload satellite owned by SpaceX/Seattle (US) in LEO that was launched on Fri, 29 Apr 2022 UTC via an FALCON 9 launch vehicle from the Air Force Eastern Test Range (AFETR). Payload-class satellites include a variety of spacecraft equipped with specific instruments for various scientific and technological missions. These include communications satellites like Starlink; space stations such as the ISS; scientific satellites like the Hubble; Earth observation satellites from companies like Planet Labs, Umbra, and HawkEye 360; GPS; miniature CubeSats for education and research; and military/defense satellites.

Loading next visibility...
Identifier
52377, 2022-045AY
Orbit
LEO
Country
Flag of USUS
Related business
Manufacturer
SpaceX/Seattle
Mission
Operational Commercial Communications
Bus & Motor
STARLINK, Unknown motor
Mass
297 kg wet, ~275 kg dry
Launch date (UTC)
2022-04-29 (4 years ago)
Launch vehicle
FALCON 9
Launch site
Air Force Eastern Test Range (AFETR)
Object type
Payload
Rocket body
Debris
Shape & HBR
Box + 1 Pan, 10.1 m
Radar Cross Section
11.087 m², Large (>1 m²)

Expand to show TLE details & history
Last TLE update: 7 hours ago

TLE from 7 hours ago
0 STARLINK-3805
1 52377U 22045AY  26119.83824810 -.00000241  00000-0  29810-5 0  9993
2 52377  53.2183 319.7265 0001480  92.7696 267.3465 15.08838007223632
Epoch: 2026-04-29T20:07Z
TLE epoch observation values (Epoch: 2026-04-29T20:07:04.635Z)
Latitude
-0.00009°
Longitude
160.16366°
Altitude
540.695 km
Speed
7.593 km/s
True Right ascension
21h 18m 54s
True Declination
0° 00' 00"
Sunlit
Object was in daylight at epoch
Visualization orbit readout
Latitude
Unknown
Longitude
Unknown
Altitude
Unknown
Speed
Unknown
Apparent Right ascension
Unknown
Apparent Declination
Unknown
Sunlit
N/A
Visualization observer readout
Local Sidereal Time
10:29:01
Azimuth
Unknown
Elevation
Unknown
Doppler factor
Unknown
Orbital elements
Apogee altitude
541.018 km
Perigee altitude
538.97 km
Semi-major axis
6,918.131 km
Eccentricity
0.00015
Inclination
53.2183°
RAAN
319.7265°
Arg. of periapsis
92.7696°
True anomaly
267.32956°
Mean anomaly
267.3465°
Eccentric anomaly
267.33803°
Mean motion
3.7719 °/min
Orbital period
95.44 mins
BSTAR
0.000002981
Loading maneuver chart data...
Computing Atmospheric mass density...
Loading historical data...
Loading historical data...
Loading historical data...
Loading historical data...
Loading historical data...
Loading historical data...
Loading historical data...

Documentation

Showing up to 5 results
|